Flag for Cyprus Weather past 2 weeks in Famagusta, Northern Cyprus, Cyprus

61 °F

Passing clouds.

Feels Like: 61 °F
Forecast: 57 / 67 °F
Wind: 3 mph from Northwest

Location: Larnaca Airport

Current Time: Nov 29, 2015 at 8:48:53 PM

Latest Report: Nov 29, 2015 at 8:30 PM

Visibility: N/A

Pressure: 30.04 "Hg

Humidity: 68%

Dew point: 50 °F

Location of FamagustaLocation

Historic Weather in Famagusta — Graph


Famagusta temperature yesterday

Maximum temperature yesterday: 73 °F (at 11:30 AM)
Minimum temperature yesterday: 55 °F (at 4:30 AM)
Average temperature yesterday: 65 °F

Past Weeks' High & Low Weather Summary

High77 °F (Nov 24, 10:30 AM)100% (Nov 27, 7:00 AM)30.21 "Hg (Nov 27, 7:00 AM)
Low54 °F (Nov 19, 4:00 AM)15% (Nov 24, 10:30 AM)29.74 "Hg (Nov 16, 1:00 PM)
Average66 °F60%30.02 "Hg
* Reported Nov 14 7:00 PM — Nov 29 7:30 PM, Famagusta, Weather by CustomWeather, © 2015

Note: Actual official high and low records may vary slightly from our data, if they occured in-between our weather recording intervals... More about our weather records


Famagusta weather history for previous 24 hours

Time TempWeatherWind HumidityBarometerVisibility
7:30 PM
Sun, Nov 29
63 °FPassing clouds.3 mph64%30.04 "HgN/A
7:00 PM63 °FPassing clouds.3 mph64%30.04 "HgN/A
6:30 PM64 °FPassing clouds.2 mph60%30.04 "HgN/A
6:00 PM66 °FPassing clouds.3 mph56%30.04 "HgN/A
5:30 PM68 °FPassing clouds.8 mph56%30.01 "HgN/A
5:00 PM68 °FPassing clouds.6 mph56%30.01 "HgN/A
4:30 PM70 °FPartly sunny.7 mph53%30.01 "HgN/A
4:00 PM72 °FPartly sunny.12 mph50%30.01 "HgN/A
3:30 PM72 °FPartly sunny.10 mph47%30.01 "HgN/A
3:00 PM73 °FPartly sunny.9 mph41%30.01 "HgN/A
2:30 PM73 °FBroken clouds.16 mph41%29.98 "HgN/A
2:00 PM75 °FScattered clouds.20 mph50%29.98 "HgN/A
1:30 PM75 °FScattered clouds.15 mph47%30.01 "HgN/A
1:00 PM73 °FBroken clouds.15 mph50%30.01 "HgN/A
12:30 PM75 °FScattered clouds.10 mph44%30.01 "HgN/A
11:30 AM75 °FPassing clouds.7 mph44%30.04 "HgN/A
11:00 AM73 °FPassing clouds.7 mph50%30.04 "HgN/A
10:30 AM73 °FPassing clouds.5 mph44%30.04 "HgN/A
10:00 AM70 °FPassing clouds.2 mph50%30.07 "HgN/A
9:30 AM68 °FPassing clouds.2 mph53%30.07 "HgN/A
9:00 AM66 °FPassing clouds.3 mph56%30.04 "HgN/A
8:30 AM66 °FPassing clouds.3 mph56%30.04 "HgN/A
8:00 AM63 °FPassing clouds.2 mph64%30.04 "HgN/A
7:30 AM59 °FPassing clouds.2 mph68%30.04 "HgN/A
7:00 AM57 °FPassing clouds.3 mph72%30.04 "HgN/A
6:30 AM57 °FPassing clouds.3 mph77%30.04 "HgN/A
6:00 AM55 °FPassing clouds.3 mph77%30.01 "HgN/A
5:30 AM59 °FPassing clouds.3 mph68%30.01 "HgN/A
5:00 AM59 °FPassing clouds.5 mph68%30.01 "HgN/A
4:30 AM63 °FPassing clouds.5 mph64%30.01 "HgN/A
4:00 AM64 °FPassing clouds.7 mph64%30.01 "HgN/A
3:30 AM66 °FPassing clouds.3 mph60%30.01 "HgN/A
3:00 AM64 °FPassing clouds.7 mph64%29.98 "HgN/A
2:30 AM64 °FPassing clouds.2 mph64%30.01 "HgN/A
2:00 AM64 °FPassing clouds.3 mph64%30.01 "HgN/A
1:30 AM64 °FPassing clouds.10 mph64%30.01 "HgN/A
1:00 AM64 °FPassing clouds.10 mph64%30.01 "HgN/A
12:00 AM61 °FPassing clouds.2 mph77%30.01 "HgN/A
11:30 PM
Sat, Nov 28
63 °FPassing clouds.3 mph68%30.01 "HgN/A
10:30 PM61 °FPassing clouds.3 mph72%30.01 "HgN/A
10:00 PM61 °FPassing clouds.5 mph77%30.01 "HgN/A
9:30 PM63 °FPassing clouds.2 mph68%30.04 "HgN/A
9:00 PM63 °FPassing clouds.3 mph68%30.04 "HgN/A
8:30 PM63 °FPassing clouds.6 mph73%30.04 "HgN/A
8:00 PM64 °FPassing clouds.7 mph68%30.04 "HgN/A
Weather by CustomWeather, © 2015

See weather overviewHow to use our weather pages